Jerez de la Frontera, Spain

1:16 PM CEST on September 25, 2017 (GMT +0200)
Jerez

Weather History for LEJR - December, 2012

Change the Weather History Date:

Wednesday, December 5, 2012

  Actual Average Record
Temperature  
Mean Temperature 54 °F -  
Max Temperature 62 °F 60 °F 72 °F (2013)
Min Temperature 44 °F 42 °F 35 °F (1998)
Degree Days  
Heating Degree Days 11    
Growing Degree Days 4 (Base 50)    
Moisture  
Dew Point 47 °F    
Average Humidity 78    
Maximum Humidity 100    
Minimum Humidity 47    
Precipitation  
Precipitation 0.00 in 0.14 in - ()
Sea Level Pressure  
Sea Level Pressure 30.24 in    
Wind  
Wind Speed 4 mph ()    
Max Wind Speed 9 mph    
Max Gust Speed -    
Visibility 6.5 miles    
Events      
Averages and records for this station are not official NWS values.
T = Trace of Precipitation, MM = Missing Value Source: Averaged Metar Reports

Daily Weather History Graph

Daily Weather History Graph

Search for Another Location

Airport or City:

Trip Planner

Search our weather history database for the weather conditions in past years. The results will help you decide how hot, cold, wet, or windy it might be!

Date:

Astronomy

Dec. 05, 2012 Rise Set
Actual Time 8:22 AM CET 6:07 PM CET
Civil Twilight 7:53 AM CET 6:36 PM CET
Nautical Twilight 7:21 AM CET 7:08 PM CET
Astronomical Twilight 6:49 AM CET 7:40 PM CET
Moon No Moon Rise 12:45 PM CET (12/5)
Length of Visible Light 10h 43m
Length of Day
9h 45m
Waning Gibbous, 62% of the Moon is Illuminated
Dec 5
Waning Gibbous
Dec 6
Last Quarter
Dec 13
New
Dec 20
First Quarter
Dec 28
Full

Hourly Weather History & Observations

Time (CET) Temp. Dew Point Humidity Pressure Visibility Wind Dir Wind Speed Gust Speed Precip Events Conditions
1:00 AM 55 °F 53 °F 92% 30.32 in - WNW 3.5 mph - -  
5:00 AM 55.4 °F 53.6 °F 94% 30.24 in 6.2 mi Variable 2.3 mph - N/A   Mostly Cloudy
5:30 AM 55.4 °F 53.6 °F 94% 30.24 in 6.2 mi Variable 2.3 mph - N/A   Mostly Cloudy
6:00 AM 55.4 °F 53.6 °F 94% 30.24 in 6.2 mi Variable 1.2 mph - N/A   Scattered Clouds
6:30 AM 55.4 °F 53.6 °F 94% 30.24 in 6.2 mi NNW 4.6 mph - N/A   Scattered Clouds
7:00 AM 54 °F 53 °F 96% 30.26 in 12 mi WNW 5.8 mph - -   Mostly Cloudy
7:00 AM 55.4 °F 53.6 °F 94% 30.24 in 6.2 mi WNW 5.8 mph - N/A   Mostly Cloudy
7:30 AM 53.6 °F 50.0 °F 88% 30.24 in 6.2 mi NW 6.9 mph - N/A   Mostly Cloudy
8:00 AM 53.6 °F 50.0 °F 88% 30.24 in 6.2 mi WNW 3.5 mph - N/A   Mostly Cloudy
8:30 AM 53.6 °F 50.0 °F 88% 30.24 in 6.2 mi WNW 3.5 mph - N/A   Mostly Cloudy
9:00 AM 53.6 °F 50.0 °F 88% 30.27 in 6.2 mi West 3.5 mph - N/A   Mostly Cloudy
9:30 AM 53.6 °F 50.0 °F 88% 30.24 in 6.2 mi West 3.5 mph - N/A   Mostly Cloudy
10:00 AM 53.6 °F 48.2 °F 82% 30.27 in 6.2 mi WNW 3.5 mph - N/A   Mostly Cloudy
10:30 AM 55.4 °F 46.4 °F 72% 30.27 in 6.2 mi NW 6.9 mph - N/A   Mostly Cloudy
11:00 AM 55.4 °F 46.4 °F 72% 30.30 in 6.2 mi NW 9.2 mph - N/A   Scattered Clouds
11:30 AM 57.2 °F 46.4 °F 67% 30.30 in 6.2 mi NNW 9.2 mph - N/A   Partly Cloudy
12:00 PM 59.0 °F 42.8 °F 55% 30.27 in 6.2 mi NNW 8.1 mph - N/A   Partly Cloudy
12:30 PM 59.0 °F 42.8 °F 55% 30.27 in 6.2 mi NW 5.8 mph - N/A   Partly Cloudy
1:00 PM 59 °F 44 °F 47% 30.26 in 31 mi NNW 5.8 mph - -   Scattered Clouds
1:00 PM 59.0 °F 41.0 °F 51% 30.24 in 6.2 mi North 4.6 mph - N/A   Partly Cloudy
1:30 PM 59.0 °F 41.0 °F 51% 30.24 in 6.2 mi NNW 4.6 mph - N/A   Partly Cloudy
2:00 PM 59.0 °F 41.0 °F 51% 30.24 in 6.2 mi Variable 1.2 mph - N/A   Partly Cloudy
4:00 PM 60.8 °F 41.0 °F 48% 30.18 in - Variable 2.3 mph - N/A   Clear
4:30 PM 59.0 °F 41.0 °F 51% 30.18 in - Variable 2.3 mph - N/A   Clear
5:00 PM 59.0 °F 42.8 °F 55% 30.21 in - Variable 1.2 mph - N/A   Clear
5:30 PM 57.2 °F 44.6 °F 63% 30.21 in - Variable 2.3 mph - N/A   Clear
6:00 PM 55.4 °F 46.4 °F 72% 30.21 in - West 4.6 mph - N/A   Clear
6:30 PM 53.6 °F 46.4 °F 77% 30.21 in - WNW 5.8 mph - N/A   Clear
7:00 PM 52 °F 47 °F 79% 30.23 in 31 mi WNW 5.8 mph - -   Clear
7:00 PM 51.8 °F 46.4 °F 82% 30.21 in - WNW 5.8 mph - N/A   Clear
7:30 PM 51.8 °F 46.4 °F 82% 30.21 in - NW 3.5 mph - N/A   Clear
8:00 PM 48.2 °F 44.6 °F 87% 30.24 in - Variable 1.2 mph - N/A   Clear
8:30 PM 48.2 °F 46.4 °F 93% 30.24 in - Variable 1.2 mph - N/A   Clear
9:00 PM 48.2 °F 46.4 °F 93% 30.24 in - Variable 1.2 mph - N/A   Clear
9:30 PM 46.4 °F 44.6 °F 93% 30.24 in - Variable 1.2 mph - N/A   Clear
10:00 PM 46.4 °F 44.6 °F 93% 30.24 in - Variable 1.2 mph - N/A   Clear
10:30 PM 46.4 °F 44.6 °F 93% 30.21 in - Variable 1.2 mph - N/A   Clear
11:00 PM 44.6 °F 44.6 °F 100% 30.21 in - Variable 1.2 mph - N/A   Clear